Total_Precipitation_Accumulation
0.00 0.00 0.00 0.00 0.00 0.00 0.00 0.00 0.00 0.00 0.01 0.01 0.00 0.01 0.00 0.00 0.00 0.00 0.00 0.00 0.00 0.01 0.01 0.01 0.01 0.02 0.01 0.02 0.02 0.02 0.11 0.02 0.04 0.08 0.11 0.13 0.11 0.11 0.28 0.15 0.20 0.39
0.00 0.00 0.00 0.00 0.00 0.00 0.00 0.00 0.00 0.00 0.00 0.01 0.01 0.01 0.01 0.00 0.00 0.00 0.00 0.00 0.00 0.00 0.01 0.02 0.01 0.01 0.02 0.02 0.02 0.07 0.19 0.18 0.16 0.14 0.22 0.19 0.21 0.28 0.29 0.28 0.15 0.30
0.00 0.00 0.00 0.00 0.00 0.00 0.00 0.00 0.00 0.00 0.00 0.00 0.00 0.01 0.01 0.01 0.01 0.01 0.01 0.01 0.01 0.02 0.00 0.01 0.01 0.01 0.02 0.02 0.02 0.02 0.13 0.17 0.23 0.25 0.18 0.11 0.12 0.16 0.29 0.10 0.30 0.13
0.00 0.00 0.00 0.00 0.00 0.00 0.00 0.00 0.00 0.00 0.00 0.01 0.00 0.00 0.00 0.01 0.00 0.01 0.01 0.01 0.01 0.02 0.03 0.01 0.01 0.01 0.01 0.02 0.03 0.03 0.02 0.07 0.11 0.20 0.17 0.18 0.23 0.18 0.10 0.28 0.15 0.17
0.00 0.00 0.00 0.00 0.00 0.00 0.00 0.00 0.00 0.00 0.00 0.00 0.00 0.01 0.00 0.01 0.01 0.01 0.00 0.00 0.01 0.03 0.02 0.01 0.01 0.02 0.01 0.02 0.02 0.04 0.02 0.02 0.01 0.03 0.07 0.09 0.22 0.28 0.26 0.20 0.26 0.11
0.00 0.00 0.00 0.00 0.00 0.00 0.00 0.00 0.00 0.00 0.00 0.00 0.01 0.00 0.00 0.00 0.01 0.00 0.01 0.01 0.01 0.00 0.03 0.02 0.02 0.02 0.02 0.02 0.03 0.04 0.05 0.03 0.03 0.04 0.05 0.06 0.11 0.07 0.09 0.21 0.14 0.08
0.00 0.00 0.00 0.00 0.00 0.00 0.00 0.00 0.00 0.00 0.00 0.00 0.00 0.01 0.01 0.01 0.00 0.01 0.01 0.01 0.01 0.01 0.02 0.03 0.03 0.02 0.02 0.03 0.03 0.03 0.02 0.02 0.03 0.04 0.02 0.04 0.05 0.05 0.04 0.08 0.19 0.13
0.00 0.00 0.00 0.00 0.00 0.00 0.00 0.00 0.00 0.00 0.00 0.00 0.00 0.00 0.01 0.01 0.00 0.01 0.00 0.01 0.01 0.01 0.01 0.01 0.05 0.03 0.04 0.03 0.02 0.02 0.02 0.02 0.02 0.04 0.03 0.04 0.05 0.04 0.09 0.07 0.07 0.08
0.00 0.00 0.00 0.00 0.00 0.00 0.00 0.00 0.00 0.00 0.00 0.00 0.00 0.00 0.00 0.01 0.00 0.01 0.00 0.01 0.01 0.01 0.02 0.02 0.02 0.05 0.04 0.04 0.06 0.05 0.04 0.03 0.02 0.03 0.04 0.05 0.07 0.11 0.07 0.10 0.12 0.13
0.00 0.00 0.00 0.00 0.00 0.00 0.00 0.00 0.00 0.00 0.00 0.00 0.00 0.01 0.01 0.01 0.01 0.01 0.00 0.01 0.01 0.01 0.01 0.02 0.03 0.06 0.08 0.05 0.05 0.08 0.08 0.05 0.07 0.06 0.09 0.09 0.10 0.08 0.05 0.03 0.06 0.06
0.00 0.00 0.00 0.00 0.00 0.00 0.00 0.00 0.00 0.00 0.00 0.00 0.00 0.00 0.00 0.00 0.01 0.00 0.01 0.01 0.01 0.02 0.01 0.02 0.04 0.02 0.03 0.07 0.05 0.07 0.06 0.07 0.16 0.11 0.07 0.07 0.04 0.06 0.04 0.07 0.10 0.13
0.00 0.00 0.00 0.00 0.00 0.00 0.00 0.00 0.00 0.00 0.00 0.00 0.00 0.01 0.00 0.00 0.00 0.01 0.01 0.01 0.01 0.01 0.01 0.02 0.09 0.08 0.10 0.07 0.09 0.06 0.05 0.06 0.06 0.04 0.06 0.03 0.03 0.02 0.06 0.09 0.10 0.10
0.00 0.00 0.00 0.00 0.00 0.00 0.00 0.00 0.00 0.00 0.00 0.00 0.00 0.00 0.00 0.00 0.00 0.01 0.01 0.01 0.01 0.01 0.02 0.03 0.10 0.11 0.17 0.11 0.11 0.06 0.07 0.07 0.04 0.03 0.04 0.07 0.01 0.02 0.02 0.03 0.07 0.11
0.05 0.01 0.00 0.00 0.00 0.00 0.00 0.00 0.00 0.00 0.00 0.00 0.00 0.00 0.00 0.00 0.00 0.00 0.00 0.01 0.00 0.01 0.02 0.06 0.08 0.15 0.12 0.16 0.14 0.12 0.09 0.04 0.06 0.15 0.11 0.04 0.02 0.02 0.03 0.05 0.03 0.06
0.00 0.00 0.01 0.00 0.00 0.00 0.00 0.00 0.01 0.00 0.00 0.01 0.00 0.00 0.00 0.00 0.00 0.00 0.00 0.00 0.00 0.01 0.02 0.10 0.18 0.16 0.18 0.24 0.28 0.26 0.09 0.04 0.04 0.02 0.05 0.04 0.03 0.03 0.04 0.04 0.05 0.05
0.03 0.04 0.00 0.01 0.00 0.00 0.00 0.00 0.01 0.01 0.02 0.01 0.00 0.00 0.00 0.00 0.00 0.00 0.00 0.00 0.00 0.01 0.06 0.11 0.14 0.16 0.25 0.13 0.07 0.05 0.04 0.02 0.02 0.03 0.03 0.03 0.04 0.03 0.02 0.04 0.06 0.09
0.38 0.17 0.00 0.00 0.01 0.00 0.01 0.01 0.03 0.04 0.03 0.00 0.00 0.00 0.00 0.00 0.00 0.00 0.00 0.00 0.00 0.00 0.02 0.06 0.19 0.31 0.09 0.10 0.04 0.01 0.02 0.02 0.03 0.02 0.02 0.02 0.03 0.06 0.03 0.03 0.05 0.07
0.26 0.10 0.07 0.01 0.01 0.01 0.02 0.07 0.03 0.02 0.01 0.00 0.00 0.00 0.00 0.00 0.00 0.00 0.00 0.00 0.00 0.01 0.03 0.05 0.30 0.12 0.07 0.04 0.01 0.01 0.02 0.02 0.02 0.03 0.02 0.01 0.04 0.04 0.04 0.05 0.06 0.10
0.21 0.07 0.10 0.08 0.05 0.08 0.20 0.01 0.01 0.00 0.00 0.00 0.00 0.00 0.00 0.00 0.00 0.00 0.00 0.00 0.01 0.01 0.05 0.03 0.30 0.17 0.04 0.01 0.00 0.00 0.01 0.01 0.02 0.03 0.02 0.02 0.03 0.04 0.06 0.07 0.10 0.16
0.01 0.02 0.03 0.10 0.10 0.09 0.05 0.04 0.01 0.00 0.00 0.00 0.00 0.00 0.00 0.00 0.00 0.00 0.00 0.01 0.04 0.18 0.05 0.04 0.19 0.14 0.00 0.00 0.00 0.00 0.00 0.00 0.01 0.03 0.03 0.03 0.04 0.04 0.07 0.12 0.11 0.11
0.25 0.29 0.35 0.18 0.10 0.10 0.05 0.03 0.01 0.00 0.00 0.00 0.00 0.00 0.00 0.00 0.00 0.00 0.00 0.20 0.34 0.22 0.11 0.07 0.08 0.02 0.00 0.00 0.00 0.00 0.00 0.00 0.00 0.02 0.05 0.06 0.11 0.08 0.15 0.16 0.15 0.11
0.38 0.33 0.08 0.05 0.04 0.03 0.02 0.01 0.00 0.00 0.00 0.00 0.00 0.00 0.01 0.00 0.00 0.00 0.08 0.21 0.14 0.08 0.04 0.02 0.04 0.01 0.00 0.01 0.01 0.01 0.01 0.00 0.05 0.07 0.06 0.11 0.07 0.08 0.22 0.28 0.18 0.20
0.24 0.21 0.32 0.03 0.01 0.01 0.01 0.00 0.00 0.00 0.00 0.00 0.00 0.01 0.01 0.01 0.01 0.02 0.22 0.21 0.09 0.07 0.07 0.04 0.07 0.05 0.05 0.14 0.03 0.02 0.01 0.03 0.10 0.05 0.04 0.08 0.09 0.10 0.15 0.16 0.16 0.42
0.03 0.03 0.00 0.02 0.01 0.00 0.00 0.00 0.00 0.00 0.00 0.00 0.02 0.02 0.02 0.02 0.04 0.09 0.31 0.15 0.10 0.06 0.06 0.12 0.05 0.09 0.24 0.12 0.04 0.02 0.01 0.04 0.09 0.06 0.08 0.14 0.29 0.30 0.38 0.31 0.43 0.41
0.00 0.00 0.00 0.00 0.00 0.00 0.00 0.00 0.00 0.01 0.01 0.04 0.03 0.06 0.09 0.06 0.04 0.12 0.20 0.18 0.21 0.10 0.03 0.05 0.11 0.20 0.08 0.09 0.04 0.03 0.02 0.04 0.08 0.20 0.23 0.33 0.23 0.19 0.15 0.25 0.18 0.31
0.00 0.00 0.00 0.00 0.00 0.00 0.00 0.00 0.04 0.06 0.03 0.05 0.10 0.26 0.08 0.08 0.04 0.12 0.26 0.34 0.12 0.12 0.13 0.11 0.17 0.35 0.33 0.19 0.07 0.03 0.01 0.04 0.23 0.22 0.18 0.11 0.14 0.07 0.12 0.07 0.10 0.16